Location: ???????
(52.3000°N, 54.4667°E)
Time: 12:24:29
(UTC+00:00)

USA 234 - Pass Details

Date: 24 January 2020
Orbit: 1100 x 1107 km, 123.0° (Epoch: 09 February)

Event Time Altitude Azimuth Distance (km) Brightness Sun altitude
Rises 13:44:25 0° 134° (SE) 3,907 5.9 -7.8°
Reaches altitude 10° 13:46:57 10° 139° (SE) 2,953 5.3 -8.2°
Maximum altitude 13:53:21 58° 217° (SW) 1,267 3.9 -9.1°
Drops below altitude 10° 13:59:49 10° 297° (WNW) 2,968 6.2 -10.1°
Sets 14:02:22 0° 301° (WNW) 3,930 6.8 -10.4°
